STARLINK-33594 (62770 NORAD) Tracking and Keplerian Element Data

This shows tracking and keplerian element data for the satellite.

Feedback or suggestion? Click here.




ElementValue
Catalog62770
NameSTARLINK-33594
Epoch Orbit5217
Epoch Day353.273144
Epoch Year2025
RAAN335.6574
Inclination53.161
Eccentricity0.0002178
Argument of Perigee68.4984
Mean Anonmoly291.6249
Mean Motion15.30274935
Decay Rate0.00052235
L11 62770U 25015N 25353.27314400 .00052235 00000+0 17593-2 0 9997
L22 62770 53.1610 335.6574 0002178 68.4984 291.6249 15.30274935 52177



Live tracking and technical data element details for STARLINK-33594 (NORAD 62770). STARLINK-33594 can be tracked NOW for your location showing map with azimuth and elevation plus other details from your city location.







IsCatalogInMostPopularTable: catalog: 62770, numindb: 260
Update: records affected: 1



GetName: 62770 STARLINK-33594

Hit Count: updated at: Sat, 07 Mar 2026 05:44:53 GMT